Location: Unspecified
(0.0000°N, 0.0000°E)
Time: 11:36:31
(UTC+00:00)

deb Explorer IX - Pass Details

Date: 22 June 2019
Orbit: 545 x 1106 km, 38.8° (Epoch: 20 October)

Event Time Altitude Azimuth Distance (km) Brightness Sun altitude
Rises 20:25:25 0° 332° (NNW) 3,629 ? -32.5°
Reaches altitude 10° 20:28:44 10° 345° (NNW) 2,583 ? -33.2°
Enters shadow 20:31:35 20° 9° (N) 1,880 ? -33.9°
